Regional Weather Roundup
Issued by NWS

Home | Current Version | Previous Version | Text Only | Print | Product List | Glossary Off
Versions: 1 2 3 4 5 6 7 8 9 10 11 12 13 14 15 16 17 18 19 20 21 22 23 24 25 26 27 28 29 30 31 32 33 34 35 36 37 38 39 40 41 42 43 44 45 46 47 48 49 50

000
ASUS43 KLSX 062359
RWRMO

WEATHER SUMMARY FOR MISSOURI
NATIONAL WEATHER SERVICE SPRINGFIELD MO
700 PM CDT WED MAY 06 2015

NOTE: "FAIR" INDICATES FEW OR NO CLOUDS BELOW 12,000 FEET WITH NO
       SIGNIFICANT WEATHER AND/OR OBSTRUCTIONS TO VISIBILITY.
       CURRENT SKY AND/OR WEATHER CONDITIONS ARE NOT AVAILABLE FOR
       CHILLICOTHE AND FARMINGTON.

MOZ001>031-035>038-043-044-053-054-070100-
...NORTHERN AND WESTERN MISSOURI...

CITY           SKY/WX    TMP DP  RH WIND       PRES   REMARKS
KANSAS CTY INT MOSUNNY   71  63  75 SE17G25   29.85F
6HR MIN TEMP:  63; 6HR MAX TEMP:  74; 6HR PCP:  0.01;

KANSAS C DTWN  SUNNY     75  62  64 SE9       29.84F
6HR MIN TEMP:  65; 6HR MAX TEMP:  77; 6HR PCP:  0.02;

LEE`S SUMMIT   SUNNY     75  58  55 SE12G21   29.88S
6HR MIN TEMP:  65; 6HR MAX TEMP:  75; 6HR PCP:  0.12;

ST JOSEPH      MOSUNNY   70  61  73 SE17G26   29.84F
6HR MIN TEMP:  65; 6HR MAX TEMP:  75; 6HR PCP:  0.03;

CHILLICOTHE      N/A     70  61  73 SE3       29.91F
6HR MIN TEMP:  69; 6HR MAX TEMP:  74; 6HR PCP:  0.01;

KIRKSVILLE     PTSUNNY   73  61  65 S12       29.95F
6HR MIN TEMP:  69; 6HR MAX TEMP:  78; 6HR PCP:  0.02;


$$
MOZ066>068-077>081-088>096-101>105-070100-
...SOUTHWEST MISSOURI...

CITY           SKY/WX    TMP DP  RH WIND       PRES   REMARKS
SPRINGFIELD    SUNNY     76  54  46 SE17G28   29.95F
6HR MIN TEMP:  67; 6HR MAX TEMP:  79; 6HR PCP: TRACE;

JOPLIN         PTSUNNY   75  55  49 S15       29.90F
6HR MIN TEMP:  74; 6HR MAX TEMP:  81;


$$
MOZ032>034-039>042-045>050-055>058-069>072-070100-
...CENTRAL MISSOURI...

CITY           SKY/WX    TMP DP  RH WIND       PRES   REMARKS
COLUMBIA       MOSUNNY   77  57  50 S12       29.96F
6HR MIN TEMP:  76; 6HR MAX TEMP:  81;

JEFFERSON CITY CLOUDY    80  53  39 SE13      29.95F
6HR MIN TEMP:  79; 6HR MAX TEMP:  82; 6HR PCP: TRACE;

ROLLA          MOSUNNY   76  53  44 S14       29.98F
6HR MIN TEMP:  73; 6HR MAX TEMP:  82; 6HR PCP: TRACE;

SEDALIA        SUNNY     78  57  48 S15       29.93F
6HR MIN TEMP:  68; 6HR MAX TEMP:  80; 6HR PCP:  0.02;

OSAGE BEACH    MOSUNNY   79  54  41 SE10      29.96F

$$
MOZ051-052-059>065-070100-
...EAST CENTRAL MISSOURI...

CITY           SKY/WX    TMP DP  RH WIND       PRES   REMARKS
ST LOUIS INTL  PTCLDY    83  50  31 S18       30.01S
6HR MIN TEMP:  83; 6HR MAX TEMP:  87;

SPIRIT OF STL  SUNNY     81  52  36 S5        29.98S
6HR MIN TEMP:  81; 6HR MAX TEMP:  85;

ST CHARLES     SUNNY     81  52  36 S20       29.98F
6HR MIN TEMP:  81; 6HR MAX TEMP:  87;


$$
MOZ072>076-082>087-097>100-106>115-070100-
...SOUTH CENTRAL AND SOUTHEAST MISSOURI...

CITY           SKY/WX    TMP DP  RH WIND       PRES   REMARKS
CAPE GIRARDEAU CLEAR     80  54  40 SE9       30.03S
6HR MIN TEMP:  80; 6HR MAX TEMP:  85;

FARMINGTON     CLEAR     79  50  36 S14       30.07S
6HR MIN TEMP:  79; 6HR MAX TEMP:  82;

POPLAR BLUFF   CLEAR     80  50  34 S12       30.01S
6HR MIN TEMP:  80; 6HR MAX TEMP:  85; 6HR PCP: TRACE;

WEST PLAINS    CLOUDY    76  53  44 S7        30.02F
6HR MIN TEMP:  75; 6HR MAX TEMP:  80;


$$


USA.gov is the U.S. government's official web portal to all federal, state and local government web resources and services.